Вернуться в каталог

STARLINK-37298

АктивенСвязьSSO
NORAD 68670·PAYLOAD·🇺🇸 United States

Запущен Apr 11, 2026 с Vandenberg Space Force Base

Loading…

Ближайшие Пролёты (ближайшие 24 часа)

TLE

СвежийSource: CelesTrak SupGP

Эпоха: Sep 15, 2026, 04:26 UTC

1 68670C 26077J   26258.18520833 -.00020722  00000+0 -64243-3 0  2586
2 68670  97.2848 128.1237 0002042  92.2448   6.0547 15.33489858    15

Отслеживайте STARLINK-37298 в реальном времени с AllMySat

Download on the App Store